Preview of NWS' New Version of Forecast
This preview is not operational and should not be used for support decisions.

Regional Weather Roundup (RWR)

Issued by National Weather Service (NWS)

                            
000
ASUS45 KBOI 210510
RWRID 

IDAHO REGIONAL WEATHER ROUNDUP
NATIONAL WEATHER SERVICE BOISE ID
1100 PM MDT SAT APR 20 2019

NOTE: "FAIR" INDICATES FEW OR NO CLOUDS BELOW 12000 FEET
WITH NO SIGNIFICANT WEATHER AND/OR OBSTRUCTIONS TO VISIBILITY

IDZ012-014-210600-
SOUTHWEST IDAHO

  
CITY           SKY/WX    TMP DP  RH WIND       PRES   REMARKS
BOISE          CLOUDY    52  46  80 W15       29.84R                  
CALDWELL       CLOUDY    51  45  79 W17G24    29.87R                  
MOUNTAIN HOME  LGT RAIN  46  46 100 NW17      29.85R                  
$$

IDZ016-017-210600-
SOUTHCENTRAL IDAHO

  
CITY           SKY/WX    TMP DP  RH WIND       PRES   REMARKS
BURLEY         LGT RAIN  50  47  89 W7        29.82F                  
JEROME         CLOUDY    49  46  90 SW10      29.85R                  
TWIN FALLS     LGT RAIN  48  46  93 SW12      29.85R                  
$$

IDZ019>023-210600-
SOUTHEAST IDAHO

  
CITY           SKY/WX    TMP DP  RH WIND       PRES   REMARKS
IDAHO FALLS    CLOUDY    55  41  59 S12       29.79R                  
POCATELLO      CLOUDY    52  42  69 SW12      29.83R                  
REXBURG        CLOUDY    56  36  47 S10       29.77R                  
$$

IDZ006-010-011-018-031-032-210600-
CENTRAL IDAHO MOUNTAINS

  
CITY           SKY/WX    TMP DP  RH WIND       PRES   REMARKS
MCCALL         CLOUDY    40  35  83 NW8       29.88R WCI  34          
HAILEY         DRIZZLE   45  43  93 NW15      29.85F                  
STANLEY        NOT AVBL                                               
SALMON         LGT RAIN  50  45  83 CALM      29.83R                  
CHALLIS        CLOUDY    47  42  83 SW14      29.85R                  
$$

IDZ002-004-006-007-026-210600-
NORTHERN IDAHO

  
CITY           SKY/WX    TMP DP  RH WIND       PRES   REMARKS
LEWISTON       MOCLDY    55  43  63 SW7       29.93R                  
LOWELL         NOT AVBL                                               
COEUR D'ALENE  CLEAR     43  42  97 E3        29.95R                  
MULLAN PASS    FOG       36  34  92 NW3       29.94R VSB 1/4          
$$